[[{"header":{"parameterUnit":"m.s-1","parameterCategory":1,"la1":30.2991,"la2":30.254,"lo1":-89.0895,"lo2":-89.0444,"dy":0.0017,"dx":0.0017,"nx":28,"ny":28,"refTime":"2024-06-14T03:00:00:Z","depth":0,"parameterNumber":2,"parameterNumberName":"U-component_of_WINDS"},"data":[0,0,0,0,0,0,0,0,0,0,0,0,0,0,0,0,0,0,0,0,0,0,0,0,0,0,0,0,0,0,0,0,0,0,0,0,0,0,0,0,0,0,0,0,0,0,0,0,0,0,0,0,0,0,0,0,0,0,1.2864,1.2865,0,1.2934,1.2934,1.2935,1.2972,1.2973,1.2973,1.2973,1.3041,1.3043,1.3045,0,0,0,0,0,0,0,0,0,0,0,0,0,1.276,1.2761,1.2864,1.2865,1.2866,1.2933,1.2934,1.2935,1.2972,1.2973,1.2973,1.2973,1.3041,1.3043,1.3045,0,0,0,0,0,0,0,0,0,0,0,0,0,1.2815,1.2762,1.2864,1.2892,1.2896,1.2933,1.2934,1.2936,1.2972,1.2973,1.2973,1.2973,1.304,1.3042,1.3045,1.3059,0,0,1.3053,1.3054,0,0,0,0,0,0,0,0,1.2811,1.2818,1.2887,1.2891,1.2894,1.2945,1.2923,1.2977,1.2972,1.2943,1.2973,1.2973,1.3009,1.3014,1.3027,1.3062,1.3065,1.3053,1.3055,1.3056,1.3057,0,0,0,0,0,0,0,1.2808,1.2816,1.2891,1.2888,1.2893,1.2901,1.2909,1.2933,1.2974,1.2946,1.2949,1.2956,1.3011,1.3024,1.3028,1.3066,1.3053,1.3055,1.3057,1.3058,1.3114,1.3114,0,0,0,0,0,0,1.28,1.2812,1.2889,1.2894,1.2852,1.2902,1.2911,1.2928,1.2974,1.2981,1.2956,1.2958,1.3019,1.3025,1.3031,1.3049,1.3056,1.3058,1.306,1.3114,1.3114,1.3114,0,0,0,0,0,0,1.2797,1.2806,1.2886,1.2854,1.2865,1.2904,1.2923,1.2929,1.2943,1.2982,1.2989,1.2963,1.302,1.3027,1.3051,1.3052,1.306,1.3062,1.3114,1.3114,1.3114,1.3086,0,0,0,0,0,0,1.2794,1.2805,1.2812,1.2854,1.2866,1.2907,1.2923,1.2931,1.2948,1.2951,1.299,1.2997,1.302,1.3047,1.3054,1.3056,1.3064,1.3114,1.3114,1.3114,1.3087,1.3085,1.3083,0,0,0,0,0,1.279,1.2801,1.2812,1.2821,1.2875,1.2907,1.2914,1.2942,1.2948,1.2954,1.2979,1.2995,1.3051,1.3049,1.3057,1.306,1.3114,1.3114,1.3114,1.3088,1.3086,1.3083,0,0,0,0,0,0,1.2757,1.2807,1.282,1.2844,1.2871,1.2913,1.2922,1.2938,1.2963,1.2965,1.2997,1.3006,1.3027,1.3046,1.3043,1.3075,1.3084,1.3086,1.3062,1.306,1.3058,1.3053,1.3066,0,0,0,0,0,1.2753,1.2775,1.2817,1.2834,1.2847,1.2882,1.2897,1.2916,1.2945,1.2956,1.2983,1.3009,1.3032,1.3047,1.3071,1.309,1.3098,1.3096,1.3094,1.3092,1.3093,1.3103,1.3102,1.3113,1.3113,1.3113,0,0,1.2744,1.2774,1.2786,1.2828,1.2852,1.2873,1.2891,1.2913,1.2929,1.2959,1.2984,1.3004,1.3035,1.3057,1.3067,1.3073,1.3091,1.3092,1.309,1.3092,1.3103,1.3102,1.3101,1.3113,1.3113,1.3113,0,0,1.2739,1.2764,1.2781,1.2803,1.2838,1.2861,1.2865,1.2904,1.2919,1.2944,1.2967,1.2985,1.3025,1.3047,1.3062,1.3064,1.3079,1.307,1.306,1.307,1.3069,1.3068,1.3068,1.3068,1.3071,1.3071,1.3071,0,1.2723,1.2757,1.2787,1.2808,1.2825,1.2854,1.287,1.2891,1.2931,1.2942,1.2948,1.2998,1.3021,1.3047,1.3047,1.306,1.3064,1.3066,1.3067,1.3067,1.3066,1.3066,1.3066,1.3069,1.307,1.307,1.307,0,1.2736,1.2759,1.2768,1.2807,1.2825,1.2844,1.2875,1.289,1.2907,1.2929,1.2953,1.2982,1.3012,1.3019,1.3036,1.3048,1.305,1.3061,1.3071,1.3063,1.3064,1.3064,1.3067,1.3068,1.3068,1.3069,0,0,1.2713,1.2767,1.277,1.2788,1.2827,1.2845,1.2864,1.2894,1.2905,1.2931,1.2947,1.298,1.299,1.3008,1.3027,1.3036,1.3034,1.3046,1.3047,1.3042,1.3047,1.3038,1.3038,1.3044,1.3044,1.3045,1.3044,0,1.2713,1.275,1.2776,1.2802,1.2823,1.285,1.2866,1.2891,1.2911,1.2931,1.2953,1.2976,1.2988,1.2999,1.3008,1.3032,1.3035,1.3032,1.3058,1.3059,1.305,1.3038,1.303,1.3028,1.3045,1.3045,1.3045,0,1.2719,1.2744,1.2772,1.2809,1.2818,1.2833,1.2861,1.288,1.2909,1.2923,1.2942,1.2962,1.2982,1.299,1.3017,1.3014,1.3026,1.3039,1.304,1.3043,1.3051,1.3041,1.3028,1.3027,1.3045,1.3045,1.3045,0,1.2698,1.274,1.2762,1.2776,1.2819,1.2828,1.2846,1.2875,1.2891,1.2915,1.2925,1.2951,1.2966,1.2985,1.301,1.3014,1.3034,1.3045,1.3045,1.3045,1.3049,1.3048,1.3037,1.3057,1.3057,1.3057,1.3057,0,1.2696,1.2712,1.2753,1.2766,1.2784,1.2814,1.2831,1.2851,1.2876,1.2893,1.2917,1.2932,1.2965,1.2984,1.3004,1.3022,1.3029,1.304,1.3045,1.3038,1.3036,1.3046,1.3046,1.3057,1.3057,1.3057,1.3057,0,1.2677,1.2705,1.2731,1.2769,1.2779,1.279,1.2823,1.2836,1.2857,1.2878,1.2884,1.2917,1.294,1.2968,1.3,1.3013,1.303,1.3037,1.302,1.3023,1.3022,1.3022,1.3017,1.3017,1.3037,1.3037,1.3036,0,1.2673,1.2686,1.2726,1.2739,1.2756,1.2778,1.2794,1.2823,1.2838,1.2871,1.288,1.2905,1.2926,1.2961,1.2987,1.3012,1.302,1.3016,1.3024,1.3015,1.3019,1.3018,1.3019,1.3014,1.3014,1.3014,1.3014,0,1.2664,1.2677,1.27,1.2726,1.2745,1.2767,1.2791,1.28,1.2834,1.2849,1.2873,1.289,1.2922,1.2946,1.2973,1.2991,1.3007,1.3011,1.3012,1.3005,1.2994,1.2999,1.3015,1.3011,1.3011,1.3012,1.3012,1.3012,1.2652,1.2664,1.2694,1.2718,1.2738,1.2759,1.2773,1.2796,1.2817,1.2846,1.2861,1.2885,1.2911,1.295,1.2966,1.2984,1.299,1.2992,1.2993,1.2993,1.299,1.2992,1.2989,1.2989,1.2989,1.299,1.299,0,1.2644,1.2664,1.2685,1.2717,1.2735,1.275,1.2776,1.279,1.281,1.2834,1.2855,1.2881,1.2904,1.2932,1.2956,1.2965,1.2973,1.2971,1.297,1.2974,1.2984,1.298,1.2964,1.2964,1.2964,1.2964,1.2964,1.2964,1.2641,1.2662,1.2679,1.2709,1.2729,1.2753,1.2766,1.2785,1.2804,1.2833,1.2852,1.287,1.2895,1.2921,1.2943,1.295,1.2958,1.2953,1.2962,1.2971,1.2973,1.2975,1.2972,1.2954,1.2954,1.295,1.295,1.295]},{"header":{"parameterUnit":"m.s-1","parameterCategory":1,"la1":30.2991,"la2":30.254,"lo1":-89.0895,"lo2":-89.0444,"dy":0.0017,"dx":0.0017,"nx":28,"ny":28,"refTime":"2024-06-14T03:00:00:Z","depth":0,"parameterNumber":3,"parameterNumberName":"V-component_of_WINDS"},"data":[0,0,0,0,0,0,0,0,0,0,0,0,0,0,0,0,0,0,0,0,0,0,0,0,0,0,0,0,0,0,0,0,0,0,0,0,0,0,0,0,0,0,0,0,0,0,0,0,0,0,0,0,0,0,0,0,0,0,0.7198,0.7198,0,0.7187,0.7187,0.7186,0.7149,0.7148,0.7147,0.7147,0.7136,0.7137,0.7137,0,0,0,0,0,0,0,0,0,0,0,0,0,0.7187,0.7188,0.7198,0.7198,0.7198,0.7187,0.7187,0.7186,0.7149,0.7148,0.7147,0.7146,0.7136,0.7136,0.7137,0,0,0,0,0,0,0,0,0,0,0,0,0,0.7186,0.7188,0.7198,0.7178,0.7176,0.7187,0.7187,0.7186,0.715,0.7148,0.7147,0.7146,0.7136,0.7136,0.7137,0.7167,0,0,0.7139,0.714,0,0,0,0,0,0,0,0,0.7186,0.7186,0.7181,0.7179,0.7177,0.7168,0.7179,0.718,0.715,0.716,0.7147,0.7145,0.7148,0.7147,0.7148,0.7166,0.7166,0.7139,0.714,0.714,0.714,0,0,0,0,0,0,0,0.7186,0.7186,0.7194,0.7181,0.7179,0.7169,0.7168,0.7179,0.7161,0.7159,0.7156,0.7155,0.7146,0.7147,0.7148,0.7166,0.7139,0.714,0.7141,0.7141,0.7206,0.7207,0,0,0,0,0,0,0.7189,0.7187,0.7194,0.7193,0.7178,0.7171,0.7169,0.7172,0.7161,0.7158,0.7156,0.7153,0.7147,0.7147,0.7147,0.718,0.714,0.7141,0.7141,0.7205,0.7206,0.7208,0,0,0,0,0,0,0.7189,0.719,0.7194,0.7189,0.7189,0.7172,0.7176,0.7173,0.7174,0.7159,0.7155,0.716,0.7146,0.7146,0.7162,0.7179,0.7141,0.7142,0.7203,0.7205,0.7207,0.7247,0,0,0,0,0,0,0.7189,0.719,0.7201,0.719,0.7189,0.721,0.7177,0.7173,0.7175,0.7171,0.7162,0.7159,0.7145,0.7161,0.7163,0.718,0.7143,0.7202,0.7204,0.7207,0.7245,0.7251,0.7256,0,0,0,0,0,0.7188,0.7214,0.7202,0.7203,0.7203,0.7211,0.7211,0.7193,0.7177,0.7188,0.7178,0.7159,0.7177,0.7163,0.7164,0.7182,0.7201,0.7204,0.7206,0.7242,0.7249,0.7256,0,0,0,0,0,0,0.7229,0.7212,0.7199,0.7221,0.7218,0.7204,0.7218,0.7202,0.7203,0.72,0.7178,0.7177,0.7195,0.719,0.7175,0.7209,0.7186,0.7189,0.7212,0.7219,0.7225,0.7226,0.7143,0,0,0,0,0,0.724,0.7247,0.7232,0.7253,0.7252,0.7235,0.7238,0.7225,0.722,0.7219,0.721,0.7207,0.7211,0.7215,0.7218,0.7243,0.724,0.7256,0.7262,0.7266,0.727,0.7281,0.7288,0.7217,0.7217,0.7217,0,0,0.7264,0.7256,0.7262,0.7261,0.7257,0.7265,0.7234,0.7244,0.725,0.722,0.7235,0.7228,0.7223,0.7243,0.7251,0.7239,0.7288,0.727,0.7274,0.7275,0.7285,0.7292,0.7298,0.7219,0.7219,0.7219,0,0,0.7311,0.7306,0.7322,0.7318,0.7312,0.73,0.7304,0.7293,0.7287,0.7301,0.7278,0.7285,0.7293,0.729,0.7289,0.7334,0.7317,0.7335,0.7365,0.7377,0.7382,0.7387,0.7402,0.7408,0.7339,0.7339,0.7339,0,0.7342,0.7353,0.7333,0.7344,0.7344,0.7317,0.7333,0.733,0.7325,0.7326,0.7312,0.7321,0.7316,0.7334,0.7345,0.7346,0.7349,0.7337,0.7383,0.7388,0.7392,0.7406,0.7412,0.7341,0.7341,0.734,0.734,0,0.739,0.7398,0.7412,0.7407,0.7409,0.7423,0.7405,0.7409,0.7395,0.7385,0.7398,0.739,0.7391,0.7395,0.7382,0.7411,0.7404,0.7387,0.7363,0.7401,0.7414,0.742,0.7344,0.7343,0.7343,0.7342,0,0,0.7464,0.7447,0.7452,0.7449,0.7439,0.7445,0.7457,0.7457,0.746,0.7458,0.7467,0.7474,0.7458,0.7457,0.7443,0.7454,0.7488,0.7435,0.7435,0.7445,0.7519,0.7532,0.7539,0.7477,0.7478,0.7478,0.752,0,0.7509,0.7528,0.751,0.7533,0.7539,0.7512,0.7522,0.7517,0.7508,0.7512,0.7501,0.7506,0.7485,0.7484,0.7493,0.7482,0.7503,0.7479,0.7485,0.7485,0.7487,0.7546,0.756,0.7599,0.7525,0.7526,0.7526,0,0.7564,0.7562,0.7586,0.7573,0.7575,0.7585,0.7582,0.7587,0.758,0.7572,0.7571,0.7553,0.7564,0.754,0.7553,0.7537,0.7539,0.7534,0.7535,0.7535,0.7508,0.7547,0.7611,0.7617,0.7534,0.7534,0.7533,0,0.7615,0.7619,0.7633,0.7631,0.7617,0.7624,0.7618,0.761,0.7611,0.7609,0.7609,0.7609,0.7609,0.7609,0.7592,0.7576,0.7607,0.7582,0.7601,0.7601,0.7609,0.7609,0.7674,0.761,0.761,0.761,0.761,0,0.7666,0.7682,0.7655,0.7664,0.768,0.7659,0.7675,0.7666,0.7659,0.7665,0.7642,0.7649,0.7626,0.763,0.7616,0.7629,0.763,0.7623,0.762,0.7626,0.7626,0.7626,0.7623,0.7611,0.7611,0.7611,0.761,0,0.7726,0.7709,0.7723,0.7707,0.7704,0.7716,0.7703,0.771,0.7698,0.7707,0.7708,0.7689,0.7692,0.7675,0.7676,0.7667,0.7686,0.7678,0.7688,0.7686,0.7705,0.7704,0.7773,0.7781,0.7712,0.7713,0.7713,0,0.7761,0.7772,0.7757,0.7759,0.7755,0.7759,0.7759,0.7738,0.7739,0.7731,0.774,0.7741,0.7741,0.7747,0.7734,0.7733,0.7725,0.7749,0.7725,0.773,0.7725,0.7724,0.7725,0.7754,0.7755,0.7756,0.7756,0,0.7823,0.7814,0.7815,0.7813,0.7814,0.7812,0.7808,0.7811,0.7788,0.779,0.7793,0.7793,0.7792,0.7794,0.7791,0.7785,0.7767,0.7764,0.7768,0.7775,0.778,0.7777,0.7702,0.7763,0.7762,0.7762,0.7761,0.7761,0.7871,0.7879,0.787,0.7872,0.7866,0.7863,0.7868,0.7857,0.7858,0.7856,0.7843,0.7848,0.784,0.7834,0.7829,0.7832,0.7821,0.7827,0.7829,0.7831,0.7834,0.7779,0.7832,0.7832,0.7831,0.7831,0.7831,0,0.7932,0.7924,0.7926,0.7921,0.7922,0.7904,0.7898,0.7901,0.7905,0.7899,0.7898,0.7901,0.7902,0.7888,0.7887,0.7892,0.7884,0.7892,0.7892,0.7891,0.7845,0.7841,0.7899,0.7899,0.7899,0.7899,0.7899,0.7899,0.7964,0.7976,0.7966,0.7975,0.7967,0.7971,0.7969,0.7965,0.796,0.7964,0.7964,0.7954,0.7945,0.7942,0.7942,0.7938,0.7939,0.795,0.7943,0.7901,0.7894,0.7888,0.7884,0.795,0.7951,0.7989,0.7989,0.7989]}]]